Regional Weather Roundup
Issued by NWS

Home | Current Version | Previous Version | Text Only | Print | Product List | Glossary On
Versions: 1 2 3 4 5 6 7 8 9 10 11 12 13 14 15 16 17 18 19 20 21 22 23 24 25 26 27 28 29 30 31 32 33 34 35 36 37 38 39 40 41 42 43 44 45 46 47 48 49
000
ASUS43 KDMX 210807
RWRIA

WEATHER ROUNDUP FOR IOWA
NATIONAL WEATHER SERVICE DES MOINES IA
300 AM CDT THU AUG 21 2014

NOTE: "FAIR" INDICATES FEW OR NO CLOUDS BELOW 12,000 FEET WITH NO
SIGNIFICANT WEATHER AND/OR OBSTRUCTIONS TO VISIBILITY.

* - THESE STATIONS ARE NOT NWS STATIONS...THUS NOT UNDER NWS
QUALITY CONTROL.  THEY ALSO DO NOT REPORT WEATHER SUCH
AS PRECIPITATION OR FOG.

IAZ001>003-012>014-020>022-031>034-043>046-210900-
   NORTHWEST IOWA

CITY           SKY/WX    TMP DP  RH WIND       PRES   REMARKS
CARROLL *      MOCLDY    75  72  88 S9        29.79F
CHEROKEE *     PTCLDY    73  73 100 S10       29.73F
DENISON *      CLEAR     77  73  88 S12G22    29.76F
LE MARS *      PTCLDY    77  73  88 S15G22    29.70F
ORANGE CITY *  PTCLDY    79  72  78 S12       29.72F HX  82
SHELDON *      MOCLDY    73  73 100 S14G20    29.70F
SIOUX CITY     PTCLDY    78  73  84 S13G18    29.71F HX  81
SPENCER        MOCLDY    75  72  90 S14       29.74F
STORM LAKE *   CLEAR     73  73 100 S10       29.78F
$$

IAZ055>058-069>071-079>083-090>094-210900-
   SOUTHWEST IOWA

CITY           SKY/WX    TMP DP  RH WIND       PRES   REMARKS
ATLANTIC *     PTCLDY    77  72  83 S9        29.81S
AUDUBON *      CLEAR     79  73  83 S8        29.82F HX  82
CLARINDA *     CLEAR     77  70  78 S9        29.84F
COUNCIL BLFS * PTCLDY    77  73  88 MISG      29.78S
CRESTON *      MOCLDY    75  72  88 S13       29.86S
HARLAN  *      CLEAR     77  72  83 S10       29.83S
LAMONI         CLEAR     76  69  79 S10       29.87F
RED OAK *      PTCLDY    79  70  73 S13       29.81F HX  81
SHENANDOAH *   CLEAR     77  70  78 S12       29.82S
$$

IAZ047>049-059>061-072>074-084-210900-
   CENTRAL IOWA

CITY           SKY/WX    TMP DP  RH WIND       PRES   REMARKS
AMES           PTCLDY    73  72  96 SE6       29.83F
ANKENY *       CLEAR     73  73 100 CALM      29.83S
CHARITON *     PTCLDY    75  72  88 S10       29.86F
DES MOINES     PTCLDY    77  72  84 S7        29.82F
GRINNELL*      PTCLDY    73  72  94 SE6       29.86F
KNOXVILLE *    MOCLDY    77  72  83 S10       29.84S
MARSHALLTOWN   PTCLDY    72  71  97 SE7       29.84F FOG
PELLA *        MOCLDY    75  73  94 S6        29.86S
PERRY *        MOCLDY    73  72  94 SE5       29.82S
$$

IAZ004>006-015-016-023>025-035-036-210900-
   NORTH CENTRAL IOWA

CITY           SKY/WX    TMP DP  RH WIND       PRES   REMARKS
ALGONA *       MOCLDY    72  72 100 SE10G18   29.80S
CLARION *        N/A     72  72 100 SE12G17   29.82F
ESTHERVILLE    CLOUDY    71  70  96 S16       29.75F
FORT DODGE *   MOCLDY    73  72  94 S10       29.80F
MASON CITY     CLOUDY    70  69  97 SE12      29.85F
FOREST CITY *  CLOUDY    70  70 100 SE9       29.82F
IOWA FALLS *   CLOUDY    70  68  94 SE6       29.85F FOG
$$

IAZ007>011-017>019-026>030-037>042-050>054-066-210900-
   NORTHEAST IOWA

CITY           SKY/WX    TMP DP  RH WIND       PRES   REMARKS
CEDAR RAPIDS   CLOUDY    69  69 100 SE6       29.87F FOG
CHARLES CITY * CLOUDY    70  68  94 SE9       29.87F
CLINTON *      MOCLDY    72  68  88 SE8       29.94S
DECORAH *      CLOUDY    70  66  88 VRB5      29.89S
DUBUQUE        CLOUDY    70  67  90 S7        29.91F
MONTICELLO *   MOCLDY    70  70 100 SE7       29.89F
OELWEIN *      PTCLDY    70  68  94 SE8       29.89F
WATERLOO       MOCLDY    70  68  93 SE7       29.85F
$$

IAZ064-065-067-068-078-210900-
   EAST CENTRAL IOWA

CITY           SKY/WX    TMP DP  RH WIND       PRES   REMARKS
DAVENPORT      MOCLDY    71  68  90 E8        29.91F
IOWA CITY      CLOUDY    71  71 100 SE3       29.89F
MT. PLEASANT * CLEAR     73  73 100 S7        29.90F
MUSCATINE *    MOCLDY    70  68  94 CALM      29.89F FOG
QUAD CITIES    PTCLDY    70  68  93 E7        29.90F
$$

IAZ062-063-075>077-085>089-095>099-210900-
   SOUTHEAST IOWA

CITY           SKY/WX    TMP DP  RH WIND       PRES   REMARKS
BURLINGTON     LGT RAIN  74  73  97 S8        29.91S
FAIRFIELD *    MOCLDY    75  72  88 S7        29.89F
FORT MADISON * CLEAR     75  73  94 S10       29.92S
KEOKUK *       CLEAR     75  72  88 S10       29.91R
OSKALOOSA *      N/A     73  72  94 S6        29.87S
CENTERVILLE *  CLEAR     75  73  94 S7        29.90F
OTTUMWA        MOCLDY    76  72  87 S7        29.87F
WASHINGTON *   MOCLDY    73  73 100 S9        29.89S FOG
$$

ABBREVIATIONS USED IN REMARKS
   TC - TEMPERATURES IN CELSIUS
  WCI - WIND CHILL INDEX
   HX - HEAT INDEX
  VSB - VISIBILITY
$$



USA.gov is the U.S. government's official web portal to all federal, state and local government web resources and services.